Погода в Зосени

Погода в Зосени : погода сейчас, прогноз погоды и архив. Всё, что Вы хотите узнать о погоде в Зосени!

Поиск расширенной информации на нашем сайте:

Другие новости

Новости СМИ2

Главная страница сайта

Новости сайта

03.07.2017

Напоминаем, что на нашем специализированном сайте Метеоцентр.Азия вы можете получить высокодетализированные автоматические прогнозы погоды по пунктам России, СНГ и мира в авиационном формате (включающие направление и скорость ветра, видимость, явления погоды, количество и форму облачности, нижнюю и верхнюю границу облачности).


Погода в Зосени - сегодня

Время (UTC), дата Ветер
(°,м/с) 
Видим.   Явления Облачность Т
(°С)
Тd
(°С)
f(%) Тe
(°С)
Pmin
(гПа)
dP
(гПа)
Po
(мм)
O2
(г/м3)
Тmin Tmax R s Состояние
почвы
00 17.10.17 270 (З) 2{10}  н/о    н/о 
+8.7 +8 95 +9  1016.3  1.3  745  290           
03 17.10.17 240 (ЮЗ) н/о    н/о 
+6.7 +6.2 97 +8  1017.9  1.4  747  292           
06 17.10.17 190 (Ю) 20000 м    9/0 верхняя 
[Sc diur, vesp|Ci fib]
+6.8 +6.6 99 +8  1018.6  0.7  747  292  +5         
09 17.10.17 220 (ЮЗ) н/о    н/о 
+10.3 +10.1 99 +11  1017.6  -0.7  747  287           
12 17.10.17 220 (ЮЗ) н/о    н/о 
+10.8 +10.1 95 +11  1014.3  -3.2  744  286           
15 17.10.17 230 (ЮЗ) 5-10{12}  н/о    н/о 
+11.9 +10.4 91 +13  1012.1  -2.1  743  284           
18 17.10.17 250 (З) 5-13{13}  н/о    10/0 кучево-дожд. 
[Cb calv]
+12.9 +11.6 92 +16  1009.5  -2.4  741  282    +13  0.4     
21 17.10.17 270 (З) 7-11{13}  н/о    н/о 
+12.9 +9.5 80 +13  1008.4  -1.1  740  282           
00 18.10.17 270 (З) 4{13}  н/о    н/о 
+11.5 +9.2 86 +11  1007.8  -0.7  739  284           
06 18.10.17 260 (З) 5-10{11}  20000 м    9/0 кучево-дожд. 
[Cb calv]
+10.2 +7.7 84 +9  1006.1  -0.6  738  285  +9.6         
09 18.10.17 260 (З) 6-10{11}  н/о    н/о 
+10.5 +8.5 87 +9  1006.7  0.6  739  285           
12 18.10.17 270 (З) 4{11}  н/о    н/о 
+10.5 +9.5 94 +11  1007.8  1.1  739  285           
15 18.10.17 290 (З) 3{10}  н/о    н/о 
+8 +5.6 85 +7  1010.9  2.8  742  289           
18 18.10.17 300 (СЗ) 2{10}  н/о    ясно 
+5.6 +4.3 91 +5  1013  1.9  743  292    +10.8     
21 18.10.17 290 (З) н/о    н/о 
+4.9 +3.6 91 +4  1014.5  1.4  744  293           
00 19.10.17 250 (З) н/о    н/о 
+2.5 +2.2 98 +2  1016  1.2  744  297           
03 19.10.17 260 (З) н/о    н/о 
+3.3 +3.1 99 +2  1016.5  0.6  746  296           
06 19.10.17 220 (ЮЗ) 20000 м    3/0 кучево-дожд. 
[Cb calv]
+3.4 +3 97 +4  1017.8  1.3  747  296  +2.4    0.3     
09 19.10.17 240 (ЮЗ) н/о    н/о 
+6.9 +5.9 93 +7  1019  1.5  748  292           
12 19.10.17 280 (З) н/о    н/о 
+10.6 +4.9 68 +10  1019.3  0.5  747  289           
15 19.10.17 310 (СЗ) н/о    н/о 
+8.1 +4.1 76 +8  1020.1  0.6  749  292           
18 19.10.17 270 (З) н/о    1/0 
[Sc diur, vesp]
+3 +1.9 92 +4  1021.4  0.9  749  297    +10.9       
21 19.10.17 тихо ()   н/о    н/о 
+0.2 +0 99 1022.6  0.9  750  301           
00 20.10.17 тихо ()   н/о    н/о 
+0.1 +0 99 1023  0.4  749  302           
03 20.10.17 тихо ()   н/о    н/о 
-0.7 -0.8 99 -1  1023.5  0.4  750  302           
Время (UTC), дата Ветер
(°,м/с) 
Видим.   Явления Облачность Т
(°С)
Тd
(°С)
f(%) Тe
(°С)
Pmin
(гПа)
dP
(гПа)
Po
(мм)
O2
(г/м3)
Тmin Tmax R s Состояние
почвы

Для получения пояснительной информации подведите курсор к названию столбца.

ПОГОДА в Зосени - архив

Всё, что Вы хотите узнать о погоде в Зосени - удобно и подробно!

Выберите нужную дату (начиная с 1 января 2015* года) и нажмите кнопку "Найти".
Будут отображены архивные сводки погоды по пункту Зосени, начиная с указанной даты.


Отображать данные в формате CSV (для использования в таблицах Excel)


Внимание! Наш архив погоды предназначен исключительно для личного некоммерческого использования в познавательных целях. Если Вам необходимы официальные справки о состоянии погоды (для производственных, юридических, коммерческих и т.п. целей), обращайтесь в органы Росгидромета.

*Примечание: данная дата относится к архиву по метеостанциям СССР (Россия, СНГ, Балтия).
Архив по метеостанциям Зарубежной Европы и Азии (кроме Китая) хранится 10 дней, по другим регионам земного шара (Китай, Африка, Америка, Австралия, Океания) - 1 день.

Зосени - район местоположения метеостанции


Название, широта, долгота, высота метеостанции:
Зосени 57.1°ш. 25.9°д. 180 м над ур. моря [Латвия]

Дополнительная информация

В oтличие oт бoльшинства пoгoдных сайтoв мы публикуем пoдрoбную метеoинфoрмацию в детальнoм прoфессиoнальнoм фoрмате.

Характеристики температуры и влажнoсти вoздуха измеряются на высoте 2 м в тени вдали oт зданий и деревьев.
Скoрoсть ветра измеряется на высoте 10 м (на урoвне рoста челoвека скoрoсть ветра ниже в 1.5-2 раза). Если метеoстанция нахoдится в гoрoде или в лесу, тo скoрoсть ветра занижена на 2-4 м/с пo сравнению с oткрытым местoм. Скoрoсть ветра над акватoриями крупных рек и oзёр, а также на вершинах хoлмoв на 2-5 м/с выше, чем в oбычных услoвиях.
Атмoсфернoе давление в разных тoчках местнoсти мoжет значительнo oтличаться oт давления на метеoстанции, в зависимoсти oт услoвий рельефа (при пoдъёме на 10 м давление пoнижается примернo на 1 мм рт.ст.).